Location: *
(46.1006°N, 1.8394°E)
Time: 20:14:45
(UTC+00:00)

Cosmos 1934 Rocket - Pass Details

Date: 20 September 2019
Orbit: 938 x 999 km, 83.0° (Epoch: 13 October)

Event Time Altitude Azimuth Distance (km) Brightness Sun altitude
Rises 20:47:24 0° 354° (N) 3,626 7.6 -28.8°
Reaches altitude 10° 20:49:57 10° 359° (N) 2,683 6.7 -29.1°
Enters shadow 20:54:49 50° 37° (NE) 1,207 4.4 -29.8°
